N0312CM KFFA-KORF

Flight info

Callsign N0312CM
Flight time 0h 24m
Altitude 5500
Route RUDKE WAPLS/N0204F055 HHOBB JHALL LUFSY
Aircraft B58T/L-SDFGRY/C

Departure

Time 2026-04-28 16:52
Airport First Flight Airport (KFFA)

Arrival

Time 2026-04-28 17:16
Airport Norfolk International Airport (KORF)
Time Latitude Longitude Altitude Speed Heading
2026-04-28 16:47 36.01441 -75.67180 17 ft 0 kts 14°
2026-04-28 16:50 36.01459 -75.67195 17 ft 11 kts 303°
2026-04-28 16:51 36.01426 -75.67214 17 ft 11 kts 190°
2026-04-28 16:51 36.01369 -75.67283 15 ft 9 kts 308°
2026-04-28 16:51 36.01489 -75.67252 15 ft 59 kts 14°
2026-04-28 16:51 36.02155 -75.67026 41 ft 131 kts 15°
2026-04-28 16:52 36.03078 -75.66737 511 ft 140 kts
2026-04-28 16:52 36.04030 -75.67059 950 ft 149 kts 335°
2026-04-28 16:52 36.05012 -75.67555 1295 ft 153 kts 340°
2026-04-28 16:52 36.06042 -75.67910 1379 ft 157 kts 346°
2026-04-28 16:53 36.07070 -75.68323 1532 ft 155 kts 338°
2026-04-28 16:53 36.08007 -75.68982 1572 ft 158 kts 323°
2026-04-28 16:53 36.08868 -75.69777 1806 ft 150 kts 322°
2026-04-28 16:53 36.09783 -75.70443 1901 ft 155 kts 331°
2026-04-28 16:54 36.10738 -75.71014 2058 ft 154 kts 336°
2026-04-28 16:54 36.11765 -75.71464 2182 ft 156 kts 340°
2026-04-28 16:54 36.12875 -75.71665 1627 ft 189 kts 348°
2026-04-28 16:54 36.13666 -75.72014 1829 ft 170 kts 337°
2026-04-28 16:55 36.15093 -75.72652 2049 ft 161 kts 341°
2026-04-28 16:55 36.16139 -75.73087 2229 ft 158 kts 340°
2026-04-28 16:55 36.17197 -75.73522 2288 ft 162 kts 341°
2026-04-28 16:55 36.18281 -75.73912 2388 ft 162 kts 345°
2026-04-28 16:56 36.19287 -75.74459 2461 ft 156 kts 326°
2026-04-28 16:56 36.20112 -75.75287 2108 ft 153 kts 316°
2026-04-28 16:56 36.20931 -75.76132 1625 ft 155 kts 326°
2026-04-28 16:56 36.21901 -75.76693 1160 ft 151 kts 338°
2026-04-28 16:57 36.22839 -75.77190 694 ft 140 kts 334°
2026-04-28 16:57 36.23677 -75.77631 452 ft 120 kts 335°
2026-04-28 16:57 36.24381 -75.78025 230 ft 99 kts 335°
2026-04-28 16:57 36.24952 -75.78338 25 ft 82 kts 334°
2026-04-28 16:58 36.25509 -75.78647 26 ft 117 kts 334°
2026-04-28 16:58 36.26411 -75.78924 281 ft 143 kts 353°
2026-04-28 16:58 36.27400 -75.78980 870 ft 147 kts
2026-04-28 16:58 36.28432 -75.78982 1339 ft 146 kts 352°
2026-04-28 16:59 36.29470 -75.79144 1489 ft 155 kts 351°
2026-04-28 16:59 36.30524 -75.79378 1741 ft 154 kts 348°
2026-04-28 16:59 36.31574 -75.79659 1909 ft 158 kts 345°
2026-04-28 16:59 36.32635 -75.79988 2142 ft 157 kts 344°
2026-04-28 17:00 36.33685 -75.80380 2340 ft 158 kts 340°
2026-04-28 17:00 36.34708 -75.80896 2539 ft 159 kts 338°
2026-04-28 17:00 36.35776 -75.81256 2725 ft 161 kts 351°
2026-04-28 17:00 36.36894 -75.81310 2923 ft 161 kts
2026-04-28 17:01 36.38016 -75.81261 3034 ft 167 kts 359°
2026-04-28 17:01 36.39209 -75.81308 3028 ft 174 kts 354°
2026-04-28 17:01 36.40420 -75.81507 3032 ft 177 kts 351°
2026-04-28 17:01 36.41649 -75.81728 3033 ft 179 kts 351°
2026-04-28 17:02 36.42884 -75.81951 3031 ft 179 kts 351°
2026-04-28 17:02 36.43700 -75.82098 3032 ft 179 kts 351°
2026-04-28 17:02 36.45341 -75.82394 3031 ft 178 kts 351°
2026-04-28 17:02 36.46567 -75.82615 3030 ft 178 kts 351°
2026-04-28 17:03 36.49001 -75.83132 3030 ft 178 kts 343°
2026-04-28 17:03 36.50193 -75.83607 3034 ft 181 kts 341°
2026-04-28 17:03 36.51390 -75.84104 3035 ft 182 kts 339°
2026-04-28 17:04 36.53755 -75.85281 3040 ft 183 kts 337°
2026-04-28 17:04 36.54923 -75.85872 3041 ft 184 kts 337°
2026-04-28 17:05 36.57305 -75.87052 3043 ft 184 kts 339°
2026-04-28 17:05 36.58519 -75.87604 3053 ft 190 kts 338°
2026-04-28 17:05 36.59780 -75.88175 3035 ft 193 kts 339°
2026-04-28 17:06 36.62242 -75.89295 3030 ft 186 kts 339°
2026-04-28 17:06 36.63452 -75.89848 3033 ft 185 kts 339°
2026-04-28 17:06 36.65871 -75.90954 3031 ft 185 kts 339°
2026-04-28 17:07 36.67068 -75.91502 3036 ft 186 kts 339°
2026-04-28 17:07 36.68278 -75.92059 3039 ft 186 kts 339°
2026-04-28 17:07 36.69500 -75.92621 3048 ft 190 kts 338°
2026-04-28 17:07 36.70730 -75.93278 3029 ft 192 kts 329°
2026-04-28 17:08 36.71825 -75.94183 3033 ft 187 kts 324°
2026-04-28 17:08 36.72888 -75.95107 3036 ft 186 kts 324°
2026-04-28 17:08 36.73936 -75.96021 3046 ft 188 kts 324°
2026-04-28 17:08 36.75008 -75.96958 3031 ft 188 kts 324°
2026-04-28 17:09 36.76091 -75.97863 3038 ft 187 kts 332°
2026-04-28 17:09 36.77312 -75.98426 3042 ft 188 kts 342°
2026-04-28 17:09 36.78577 -75.98896 3033 ft 189 kts 345°
2026-04-28 17:09 36.79441 -75.99148 3044 ft 189 kts 347°
2026-04-28 17:10 36.80709 -75.99488 3034 ft 187 kts 347°
2026-04-28 17:10 36.81969 -75.99826 3029 ft 187 kts 347°
2026-04-28 17:10 36.83249 -76.00175 3031 ft 188 kts 347°
2026-04-28 17:10 36.84452 -76.00501 3046 ft 188 kts 346°
2026-04-28 17:11 36.85578 -76.01264 3028 ft 186 kts 312°
2026-04-28 17:11 36.86348 -76.02550 3046 ft 185 kts 304°
2026-04-28 17:11 36.87070 -76.03837 3047 ft 187 kts 304°
2026-04-28 17:11 36.87818 -76.05170 3040 ft 186 kts 304°
2026-04-28 17:12 36.88555 -76.06488 3046 ft 184 kts 304°
2026-04-28 17:12 36.89285 -76.07795 3040 ft 184 kts 304°
2026-04-28 17:12 36.90015 -76.09100 3050 ft 182 kts 304°
2026-04-28 17:12 36.90744 -76.10402 3050 ft 186 kts 303°
2026-04-28 17:13 36.91494 -76.11742 3048 ft 186 kts 304°
2026-04-28 17:13 36.92204 -76.13000 3032 ft 168 kts 304°
2026-04-28 17:13 36.92850 -76.14155 3031 ft 157 kts 304°
2026-04-28 17:13 36.93465 -76.15251 3030 ft 152 kts 304°
2026-04-28 17:14 36.94068 -76.16322 3028 ft 149 kts 304°
2026-04-28 17:14 36.94601 -76.17389 3043 ft 136 kts 284°
2026-04-28 17:14 36.94279 -76.18403 2527 ft 146 kts 199°
2026-04-28 17:14 36.93306 -76.18167 1772 ft 151 kts 155°
2026-04-28 17:15 36.92384 -76.17799 1282 ft 133 kts 175°
2026-04-28 17:15 36.91522 -76.18048 619 ft 131 kts 213°
2026-04-28 17:15 36.90820 -76.18681 139 ft 121 kts 217°
2026-04-28 17:15 36.90279 -76.19195 -1 ft 96 kts 218°
2026-04-28 17:16 36.89843 -76.19618 -2 ft 71 kts 218°
2026-04-28 17:16 36.89501 -76.19949 2 ft 53 kts 217°
2026-04-28 17:16 36.89253 -76.20189 3 ft 40 kts 218°
2026-04-28 17:16 36.89059 -76.20375 1 ft 31 kts 217°
2026-04-28 17:17 36.88930 -76.20457 0 ft 13 kts 158°
2026-04-28 17:17 36.88875 -76.20364 -2 ft 14 kts 111°
2026-04-28 17:17 36.88839 -76.20232 -3 ft 18 kts 110°
2026-04-28 17:17 36.88789 -76.20088 -3 ft 19 kts 138°
2026-04-28 17:18 36.88726 -76.19996 -3 ft 9 kts 130°
2026-04-28 17:18 36.88668 -76.20006 -3 ft 8 kts 217°
2026-04-28 17:18 36.88644 -76.20049 -3 ft 7 kts 296°
2026-04-28 17:18 36.88653 -76.20064 -3 ft 0 kts 307°